Location: Caltech
(34.1382°N, 118.1253°W)
Time: 07:49:44
(UTC-08:00)

SEDSat Delta rocket - Visible Passes

Search period start: 27 February 2017 00:00
Search period end: 09 March 2017 00:00
Orbit: 533 x 1002 km, 31.4° (Epoch: 26 February)

Date Brightness Start Highest point End Pass type
(mag) Time Alt. Az. Time Alt. Az. Time Alt. Az.
27 Feb 5.3 18:35:30 10° SSW 18:40:42 24° SSE 18:44:30 14° ESE visible
27 Feb 5.0 20:20:34 10° WSW 20:24:40 36° SW 20:24:40 36° SW visible
28 Feb 4.2 19:39:55 10° SW 19:46:18 48° SSE 19:46:48 47° SSE visible
28 Feb 6.4 21:26:20 10° W 21:26:57 13° WSW 21:26:57 13° WSW visible
01 Mar 4.5 18:59:19 10° SW 19:05:42 44° SSE 19:08:53 26° ESE visible
01 Mar 5.3 20:45:35 10° WSW 20:49:02 32° WSW 20:49:02 32° WSW visible
02 Mar 4.7 18:18:48 10° SW 18:25:06 41° SSE 18:30:55 11° E visible
02 Mar 4.0 20:04:51 10° WSW 20:11:04 65° SSW 20:11:04 65° SSW visible
03 Mar 4.1 19:24:10 10° WSW 19:30:53 65° S 19:33:03 42° ESE visible
03 Mar 5.9 21:10:53 10° W 21:13:12 23° W 21:13:12 23° W visible
04 Mar 4.2 18:43:31 10° WSW 18:50:14 62° S 18:55:01 19° E visible
04 Mar 4.6 20:30:07 10° W 20:35:09 50° WSW 20:35:09 50° WSW visible
05 Mar 3.9 19:49:24 10° W 19:56:11 71° S 19:57:05 63° SE visible
05 Mar 6.4 21:36:17 10° W 21:37:13 14° W 21:37:13 14° W visible
06 Mar 4.1 19:08:43 10° W 19:15:31 72° S 19:19:00 30° ESE visible
06 Mar 5.4 20:55:30 10° W 20:59:09 32° WSW 20:59:09 32° WSW visible
07 Mar 4.2 18:28:06 10° W 18:34:50 71° S 18:40:54 13° E visible
07 Mar 4.3 20:14:46 10° W 20:21:03 57° SSW 20:21:03 57° SSW visible
08 Mar 4.2 19:34:05 10° W 19:40:47 62° SSW 19:42:59 42° SE visible
08 Mar 6.1 21:21:11 10° W 21:23:07 18° WSW 21:23:07 18° WSW visible
